Location: Plainartige
(45.6866°N, 1.7993°E)
Time: 15:42:40
(UTC+00:00)

Tiros 1 - Pass Details

Date: 29 May 2022
Orbit: 629 x 663 km, 48.4° (Epoch: 05 July)

Event Time Altitude Azimuth Distance (km) Brightness Sun altitude
Exits shadow 00:30:22 61° 230° (SW) 714 7.1 -22.1°
Maximum altitude 00:31:07 81° 159° (SSE) 644 6.9 -22.1°
Drops below altitude 10° 00:35:47 10° 72° (ENE) 2,023 10.0 -21.9°
Sets 00:38:07 0° 71° (ENE) 2,938 11.0 -21.8°
